Lamoni, IA

12:40 PM CST on November 21, 2017 (GMT -0600)
Lamoni Municipal

Weather History for KLWD - April, 2014

Change the Weather History Date:

Wednesday, April 2, 2014

  Actual Average Record
Temperature  
Mean Temperature 41 °F 47 °F  
Max Temperature 49 °F 58 °F 85 °F (1981)
Min Temperature 32 °F 37 °F 15 °F (1970)
Degree Days  
Heating Degree Days 24 18  
Month to date heating degree days 51 36  
Since 1 July heating degree days 6256 5525  
Cooling Degree Days 0 0  
Month to date cooling degree days 0 0  
Year to date cooling degree days 0 1  
Moisture  
Dew Point 34 °F    
Average Humidity 77    
Maximum Humidity 100    
Minimum Humidity 53    
Precipitation  
Precipitation 0.01 in 0.08 in 1.11 in (1984)
Month to date precipitation 0.01 0.15  
Sea Level Pressure  
Sea Level Pressure 29.92 in    
Wind  
Wind Speed 13 mph (ENE)    
Max Wind Speed 22 mph    
Max Gust Speed 29 mph    
Visibility 8 miles    
Events Rain    
T = Trace of Precipitation, MM = Missing Value Source: NWS Daily Summary

Daily Weather History Graph

Daily Weather History Graph

Search for Another Location

Airport or City:

Trip Planner

Search our weather history database for the weather conditions in past years. The results will help you decide how hot, cold, wet, or windy it might be!

Date:

Astronomy

Apr. 02, 2014 Rise Set
Actual Time 6:57 AM CDT 7:41 PM CDT
Civil Twilight 6:29 AM CDT 8:09 PM CDT
Nautical Twilight 5:57 AM CDT 8:41 PM CDT
Astronomical Twilight 5:23 AM CDT 9:15 PM CDT
Moon 8:41 AM CDT (4/2) 11:06 PM CDT (4/2)
Length of Visible Light 13h 39m
Length of Day
12h 43m
Waxing Crescent, 10% of the Moon is Illuminated
Apr 2
Waxing Crescent
Apr 7
First Quarter
Apr 15
Full
Apr 22
Last Quarter
Apr 29
New

Hourly Weather History & Observations

Time (CDT) Temp. Windchill Dew Point Humidity Pressure Visibility Wind Dir Wind Speed Gust Speed Precip Events Conditions
12:53 AM 39.9 °F 33.9 °F 25.0 °F 55% 30.07 in 10.0 mi ENE 9.2 mph - N/A   Mostly Cloudy
1:53 AM 37.9 °F 32.1 °F 25.0 °F 60% 30.05 in 10.0 mi ENE 8.1 mph - N/A   Clear
2:53 AM 36.0 °F 29.6 °F 25.0 °F 64% 30.04 in 10.0 mi ENE 8.1 mph - N/A   Clear
3:53 AM 36.0 °F 32.1 °F 24.1 °F 62% 30.05 in 10.0 mi East 4.6 mph - N/A   Clear
4:53 AM 33.1 °F 24.9 °F 25.0 °F 72% 30.04 in 10.0 mi NNE 10.4 mph - N/A   Clear
5:53 AM 35.1 °F 26.9 °F 25.0 °F 67% 30.03 in 10.0 mi ENE 11.5 mph - N/A   Clear
7:53 AM 35.1 °F 25.9 °F 26.1 °F 70% 30.02 in 10.0 mi ENE 13.8 mph - N/A   Scattered Clouds
8:53 AM 39.0 °F 30.3 °F 28.9 °F 67% 30.01 in 10.0 mi ENE 16.1 mph 26.5 mph N/A   Mostly Cloudy
9:53 AM 42.1 °F 33.9 °F 28.9 °F 60% 29.99 in 10.0 mi ENE 17.3 mph 27.6 mph N/A   Scattered Clouds
10:53 AM 44.1 °F 37.4 °F 30.0 °F 58% 29.99 in 10.0 mi ENE 13.8 mph - N/A   Overcast
11:34 AM 46.9 °F - 30.9 °F 54% 29.96 in 10.0 mi East 15.0 mph 25.3 mph N/A   Overcast
11:53 AM 46.0 °F 39.6 °F 30.9 °F 56% 29.97 in 10.0 mi East 15.0 mph 24.2 mph N/A   Overcast
12:53 PM 46.0 °F 40.2 °F 32.0 °F 58% 29.96 in 10.0 mi East 12.7 mph 24.2 mph N/A   Overcast
1:53 PM 46.0 °F 39.9 °F 34.0 °F 63% 29.94 in 10.0 mi ENE 13.8 mph - N/A   Overcast
2:53 PM 45.0 °F 38.9 °F 35.1 °F 68% 29.92 in 10.0 mi ENE 12.7 mph 24.2 mph 0.00 in   Overcast
3:53 PM 46.0 °F 38.8 °F 36.0 °F 68% 29.90 in 10.0 mi East 18.4 mph 26.5 mph N/A   Overcast
5:53 PM 44.1 °F 37.7 °F 36.0 °F 73% 29.86 in 10.0 mi ENE 12.7 mph 21.9 mph N/A   Overcast
6:53 PM 44.1 °F 37.4 °F 36.0 °F 73% 29.86 in 10.0 mi East 13.8 mph 20.7 mph N/A   Overcast
7:39 PM 44.1 °F 37.1 °F 37.0 °F 76% 29.82 in 10.0 mi East 15.0 mph 23.0 mph N/A   Overcast
7:53 PM 44.1 °F 36.8 °F 37.0 °F 76% 29.84 in 10.0 mi East 16.1 mph 23.0 mph N/A   Overcast
8:53 PM 44.1 °F 38.6 °F 37.9 °F 79% 29.86 in 9.0 mi East 10.4 mph - N/A   Overcast
9:33 PM 44.1 °F 37.4 °F 39.9 °F 85% 29.83 in 7.0 mi East 13.8 mph 20.7 mph N/A   Overcast
9:53 PM 44.1 °F 37.4 °F 39.9 °F 85% 29.84 in 6.0 mi East 13.8 mph - N/A   Overcast
10:28 PM 43.0 °F 37.2 °F 41.0 °F 93% 29.82 in 2.0 mi East 10.4 mph - 0.00 in Rain Light Rain
10:38 PM 43.0 °F 37.2 °F 41.0 °F 93% 29.81 in 1.8 mi East 10.4 mph - 0.00 in   Overcast
10:51 PM 42.8 °F 37.0 °F 42.8 °F 100% 29.79 in 2.0 mi ENE 10.4 mph - 0.00 in   Overcast
10:53 PM 43.0 °F 36.8 °F 42.1 °F 97% 29.81 in 2.0 mi ENE 11.5 mph - 0.00 in   Overcast
11:26 PM 43.0 °F 36.8 °F 42.1 °F 97% 29.80 in 1.8 mi East 11.5 mph - 0.01 in   Overcast
11:53 PM 44.1 °F 39.0 °F 43.0 °F 96% 29.80 in 1.8 mi East 9.2 mph - 0.01 in   Overcast